TOM718 EKCH-ESSA

Flight info

Callsign TOM718
Flight time N/A
Altitude 31000
Route KEMAX N851 ROXEN DCT MIKNA N851 PELUP Z226 NILUG
Aircraft B738/M-SDE2E3FGHIRWXY/LB1

Departure

Time 2026-04-23 19:14
Airport Copenhagen Kastrup Airport (EKCH)

Arrival

Time N/A
Airport Stockholm-Arlanda Airport (ESSA)
Time Latitude Longitude Altitude Speed Heading
2026-04-23 18:37 55.62728 12.65250 24 ft 0 kts
2026-04-23 18:58 55.62721 12.65249 23 ft 4 kts
2026-04-23 18:58 55.62694 12.65248 23 ft 4 kts 354°
2026-04-23 18:58 55.62669 12.65259 24 ft 4 kts 326°
2026-04-23 18:59 55.62657 12.65285 24 ft 2 kts 264°
2026-04-23 18:59 55.62657 12.65287 24 ft 1 kts 263°
2026-04-23 19:03 55.62656 12.65271 23 ft 3 kts 263°
2026-04-23 19:03 55.62652 12.65238 23 ft 3 kts 253°
2026-04-23 19:04 55.62625 12.65187 23 ft 10 kts 205°
2026-04-23 19:04 55.62553 12.65182 25 ft 10 kts 178°
2026-04-23 19:04 55.62482 12.65185 23 ft 10 kts 178°
2026-04-23 19:04 55.62413 12.65200 23 ft 10 kts 178°
2026-04-23 19:05 55.62346 12.65203 23 ft 10 kts 179°
2026-04-23 19:05 55.62280 12.65198 23 ft 9 kts 181°
2026-04-23 19:05 55.62215 12.65181 23 ft 11 kts 204°
2026-04-23 19:05 55.62119 12.65073 25 ft 20 kts 213°
2026-04-23 19:06 55.61993 12.64928 23 ft 25 kts 213°
2026-04-23 19:06 55.61837 12.64749 23 ft 27 kts 212°
2026-04-23 19:06 55.61685 12.64574 23 ft 25 kts 213°
2026-04-23 19:06 55.61542 12.64410 24 ft 24 kts 212°
2026-04-23 19:07 55.61408 12.64257 23 ft 23 kts 213°
2026-04-23 19:07 55.61281 12.64107 23 ft 22 kts 213°
2026-04-23 19:07 55.61155 12.63962 23 ft 21 kts 212°
2026-04-23 19:07 55.61032 12.63823 23 ft 21 kts 212°
2026-04-23 19:08 55.60912 12.63688 23 ft 20 kts 213°
2026-04-23 19:08 55.60797 12.63556 24 ft 19 kts 213°
2026-04-23 19:08 55.60685 12.63426 25 ft 19 kts 214°
2026-04-23 19:08 55.60586 12.63281 24 ft 18 kts 221°
2026-04-23 19:09 55.60523 12.63216 23 ft 2 kts 189°
2026-04-23 19:09 55.60509 12.63216 23 ft 2 kts 174°
2026-04-23 19:09 55.60491 12.63230 24 ft 3 kts 147°
2026-04-23 19:09 55.60470 12.63265 23 ft 4 kts 131°
2026-04-23 19:10 55.60466 12.63272 23 ft 0 kts 131°
2026-04-23 19:12 55.60455 12.63294 23 ft 8 kts 130°
2026-04-23 19:12 55.60415 12.63377 24 ft 9 kts 130°
2026-04-23 19:13 55.60414 12.63461 24 ft 0 kts 41°
2026-04-23 19:13 55.60474 12.63555 27 ft 39 kts 41°
2026-04-23 19:13 55.60852 12.64136 28 ft 103 kts 41°
2026-04-23 19:14 55.61525 12.65180 27 ft 152 kts 40°
2026-04-23 19:14 55.62358 12.66475 448 ft 160 kts 39°
2026-04-23 19:14 55.63260 12.67818 800 ft 181 kts 38°
2026-04-23 19:14 55.64249 12.69324 1368 ft 184 kts 38°
2026-04-23 19:15 55.65176 12.70772 2129 ft 182 kts 36°
2026-04-23 19:15 55.66199 12.72322 2374 ft 204 kts 36°
2026-04-23 19:15 55.67335 12.74027 2545 ft 223 kts 36°
2026-04-23 19:15 55.68652 12.76000 2813 ft 241 kts 36°
2026-04-23 19:16 55.71962 12.80959 4241 ft 256 kts 36°
2026-04-23 19:16 55.74338 12.84529 5563 ft 258 kts 36°
2026-04-23 19:16 55.79405 12.92458 8230 ft 265 kts 36°
2026-04-23 19:17 55.85165 13.01538 10593 ft 299 kts 36°
2026-04-23 19:17 55.86228 13.03209 10713 ft 314 kts 36°
2026-04-23 19:17 55.87922 13.05880 10874 ft 335 kts 37°
2026-04-23 19:17 55.94196 13.15848 12726 ft 359 kts 37°
2026-04-23 19:18 56.01798 13.27980 15195 ft 373 kts 37°
2026-04-23 19:18 56.09622 13.40524 17809 ft 382 kts 37°
2026-04-23 19:18 56.13589 13.46795 18925 ft 387 kts 34°
2026-04-23 19:18 56.19376 13.54365 20286 ft 393 kts 31°
2026-04-23 19:19 56.34064 13.73497 23395 ft 413 kts 32°
2026-04-23 19:19 56.42236 13.84339 24877 ft 418 kts 32°
2026-04-23 19:20 56.57251 14.04407 27027 ft 434 kts 32°
2026-04-23 19:20 56.66445 14.16791 28460 ft 436 kts 33°
2026-04-23 19:20 56.73344 14.26141 29814 ft 431 kts 33°
2026-04-23 19:20 56.75749 14.29412 30276 ft 430 kts 33°
2026-04-23 19:21 56.78151 14.32683 30606 ft 430 kts 32°
2026-04-23 19:21 56.82953 14.39234 31089 ft 433 kts 32°
2026-04-23 19:22 56.98071 14.59999 31091 ft 436 kts 32°
2026-04-23 19:22 57.26581 14.99777 31079 ft 422 kts 32°
2026-04-23 19:23 57.45452 15.26526 31104 ft 433 kts 33°
2026-04-23 19:24 57.73906 15.67583 31021 ft 421 kts 33°
2026-04-23 19:24 57.97219 16.01824 31066 ft 429 kts 33°
2026-04-23 19:25 58.27776 16.47902 31023 ft 427 kts 39°
2026-04-23 19:26 58.36947 16.70856 30631 ft 433 kts 48°
2026-04-23 19:26 58.44099 16.89413 27510 ft 431 kts 48°
2026-04-23 19:27 58.57627 17.24703 23214 ft 394 kts 47°